CW7359 Weather Reports


time (UTC)temp
C
wind
direction
speed
KPH
gust
KPH
rain 1hr
cm
rain 24hr
cm
rain mn
cm
humidity
%
barometer
mb
20260507105620 13 305 0.0 0.0 0.00 0.00 0.00 82 1016.1
20260507105119 13 305 0.0 0.0 0.00 0.00 0.00 82 1016.1
20260507104618 13 304 0.0 0.0 0.00 0.00 0.00 82 1016.2
20260507104118 13 305 0.0 0.0 0.00 0.00 0.00 82 1016.2
20260507103619 13 305 0.0 0.0 0.00 0.00 0.00 82 1016.2
20260507103137 13 304 0.0 0.0 0.00 0.00 0.00 82 1016.3
20260507102637 13 305 0.0 0.0 0.00 0.00 0.00 82 1016.3
20260507102136 13 305 0.0 0.0 0.00 0.00 0.00 82 1016.3
20260507101615 13 305 0.0 0.0 0.00 0.00 0.00 82 1016.3
20260507101114 13 305 0.0 0.0 0.00 0.00 0.00 82 1016.4
20260507100614 13 305 0.0 0.0 0.00 0.00 0.00 82 1016.3
20260507100116 13 305 0.0 0.0 0.00 0.00 0.00 82 1016.3
20260507095635 13 304 0.0 0.0 0.00 0.00 0.00 82 1016.3
20260507095128 13 304 0.0 0.0 0.00 0.00 0.00 82 1016.3
20260507094627 13 305 0.0 0.0 0.00 0.00 0.00 82 1016.4
20260507094127 13 305 0.0 0.0 0.00 0.00 0.00 82 1016.5
20260507093627 13 304 0.0 0.0 0.00 0.00 0.00 82 1016.5
20260507093125 13 304 0.0 0.0 0.00 0.00 0.00 81 1016.5
20260507092626 14 305 0.0 0.0 0.00 0.00 0.00 81 1016.6
20260507092125 14 304 0.0 0.0 0.00 0.00 0.00 81 1016.5
20260507091623 14 305 0.0 0.0 0.00 0.00 0.00 81 1016.7
20260507091124 14 305 0.0 0.0 0.00 0.00 0.00 81 1016.7
20260507090623 14 305 0.0 0.0 0.00 0.00 0.00 81 1016.7
20260507090123 14 304 0.0 0.0 0.00 0.00 0.00 81 1016.8
20260507085623 14 304 0.0 0.0 0.00 0.00 0.00 81 1016.8
20260507085122 14 305 0.0 0.0 0.00 0.00 0.00 81 1016.9
20260507084621 14 304 0.0 0.0 0.00 0.00 0.00 81 1017.1
20260507084122 14 305 0.0 0.0 0.00 0.00 0.00 81 1017.2
20260507083620 14 304 0.0 0.0 0.00 0.00 0.00 81 1017.2
20260507083122 14 304 0.0 0.0 0.00 0.00 0.00 81 1017.2
20260507082620 14 304 0.0 0.0 0.00 0.00 0.00 81 1017.2
20260507082119 14 305 0.0 0.0 0.00 0.00 0.00 81 1017.2
20260507081620 14 305 0.0 0.0 0.00 0.00 0.00 81 1017.2
20260507081118 15 305 0.0 0.0 0.00 0.00 0.00 81 1017.2
20260507080618 15 305 0.0 0.0 0.00 0.00 0.00 81 1017.3
20260507080138 15 305 0.0 0.0 0.00 0.00 0.00 81 1017.3
20260507075617 15 305 0.0 0.0 0.00 0.00 0.00 81 1017.4
20260507075117 15 305 0.0 0.0 0.00 0.00 0.00 81 1017.3
20260507074616 15 305 0.0 0.0 0.00 0.00 0.00 81 1017.4
20260507074114 15 304 0.0 0.0 0.00 0.00 0.00 81 1017.3
20260507073634 15 304 0.0 0.0 0.00 0.00 0.00 81 1017.3
20260507073114 15 305 0.0 0.0 0.00 0.00 0.00 81 1017.4
20260507072614 15 304 0.0 0.0 0.00 0.00 0.00 81 1017.4
20260507072133 15 305 0.0 0.0 0.00 0.00 0.00 81 1017.4
20260507071635 15 305 0.0 0.0 0.00 0.00 0.00 81 1017.3
20260507071132 15 304 0.0 0.0 0.00 0.00 0.00 81 1017.3
20260507070633 15 305 0.0 0.0 0.00 0.00 0.00 83 1017.5
20260507070132 15 305 0.0 1.6 0.00 0.00 0.00 81 1017.5
20260507065625 15 305 0.0 1.6 0.00 0.00 0.00 81 1017.6
20260507065126 15 305 0.0 3.2 0.00 0.00 0.00 81 1017.7
20260507064627 15 304 0.0 3.2 0.00 0.00 0.00 81 1017.7
20260507064127 15 304 0.0 3.2 0.00 0.00 0.00 81 1017.7
20260507063627 15 305 1.6 4.8 0.00 0.00 0.00 81 1017.8
20260507063126 15 305 3.2 6.4 0.00 0.00 0.00 81 1017.8
20260507062625 15 305 3.2 6.4 0.00 0.00 0.00 80 1017.7
20260507062146 15 287 1.6 6.4 0.00 0.00 0.00 80 1017.7
20260507061625 15 287 1.6 4.8 0.00 0.00 0.00 80 1018.3
20260507061125 15 296 1.6 6.4 0.00 0.00 0.00 80 1017.8
20260507060625 15 295 3.2 6.4 0.00 0.00 0.00 80 1017.7
20260507060146 15 273 3.2 4.8 0.00 0.00 0.00 80 1017.7
20260507055626 15 273 3.2 4.8 0.00 0.00 0.00 79 1017.7
20260507055127 16 272 1.6 3.2 0.00 0.00 0.00 79 1017.8
20260507054646 16 273 1.6 3.2 0.00 0.00 0.00 79 1017.7
20260507054125 16 273 1.6 3.2 0.00 0.00 0.00 78 1017.7
20260507053625 16 272 1.6 4.8 0.00 0.00 0.00 78 1017.7
20260507053126 16 272 1.6 4.8 0.00 0.00 0.00 78 1017.8
20260507052628 16 273 0.0 4.8 0.00 0.00 0.00 78 1017.8
20260507052125 16 273 1.6 4.8 0.00 0.00 0.00 78 1017.7
20260507051626 16 273 3.2 6.4 0.00 0.00 0.00 78 1017.8
20260507051123 16 306 1.6 4.8 0.00 0.00 0.00 78 1017.8
20260507050623 16 307 3.2 4.8 0.00 0.00 0.00 78 1017.7
20260507050123 16 327 1.6 4.8 0.00 0.00 0.00 78 1017.7
20260507045624 16 327 1.6 3.2 0.00 0.00 0.00 77 1017.6
20260507045123 16 328 1.6 3.2 0.00 0.00 0.00 77 1017.6
20260507044621 16 327 1.6 6.4 0.00 0.00 0.00 77 1017.6
20260507044119 16 328 0.0 6.4 0.00 0.00 0.00 77 1017.6
20260507043619 16 308 3.2 6.4 0.00 0.00 0.00 77 1017.6
20260507043141 16 286 3.2 4.8 0.00 0.00 0.00 77 1017.5
20260507042619 16 256 3.2 4.8 0.00 0.00 0.00 78 1017.5
20260507042120 16 254 3.2 6.4 0.00 0.00 0.00 78 1017.5
20260507041620 16 294 3.2 6.4 0.00 0.00 0.00 77 1017.4
20260507041120 16 298 3.2 12.9 0.00 0.00 0.00 77 1017.4
20260507040619 16 296 6.4 12.9 0.00 0.00 0.00 77 1017.3
20260507040119 16 311 4.8 9.7 0.00 0.00 0.00 77 1017.3
20260507035618 16 287 3.2 8.0 0.00 0.00 0.00 77 1017.3
20260507035118 16 256 4.8 12.9 0.00 0.00 0.00 76 1017.3
20260507034636 16 302 4.8 12.9 0.00 0.00 0.00 76 1017.3
20260507034153 16 311 3.2 8.0 0.00 0.00 0.00 76 1017.2
20260507033631 16 289 3.2 11.3 0.00 0.00 0.00 75 1017.1
20260507033130 16 316 3.2 9.7 0.00 0.00 0.00 75 1017.1
20260507032631 17 283 4.8 9.7 0.00 0.00 0.00 74 1016.9
20260507032129 17 291 3.2 9.7 0.00 0.00 0.00 74 1017.0
20260507031629 17 319 3.2 14.5 0.00 0.00 0.00 73 1017.0
20260507031127 17 303 6.4 14.5 0.00 0.00 0.00 72 1016.9
20260507030625 17 313 4.8 12.9 0.00 0.00 0.00 72 1016.9
20260507030125 17 313 6.4 12.9 0.00 0.00 0.00 71 1016.8
20260507025626 17 313 8.0 12.9 0.00 0.00 0.00 71 1016.8
20260507025126 17 349 6.4 12.9 0.00 0.00 0.00 70 1016.8
20260507024627 17 279 4.8 12.9 0.00 0.00 0.00 69 1016.7
20260507024126 17 291 3.2 12.9 0.00 0.00 0.00 68 1016.6
20260507023626 18 319 6.4 11.3 0.00 0.00 0.00 67 1016.6
20260507023127 18 323 4.8 9.7 0.00 0.00 0.00 68 1016.5
20260507022626 18 295 6.4 12.9 0.00 0.00 0.00 66 1016.5
20260507022124 18 288 6.4 16.1 0.00 0.00 0.00 66 1016.5
20260507021625 18 277 8.0 16.1 0.00 0.00 0.00 65 1016.6
20260507021125 18 295 8.0 16.1 0.00 0.00 0.00 65 1016.4
20260507020625 18 304 8.0 16.1 0.00 0.00 0.00 64 1016.5
20260507020125 18 304 6.4 17.7 0.00 0.00 0.00 63 1016.5
20260507015626 19 296 8.0 16.1 0.00 0.00 0.00 62 1016.4
20260507015126 19 296 8.0 16.1 0.00 0.00 0.00 62 1016.4
20260507014626 20 281 8.0 17.7 0.00 0.00 0.00 61 1016.3
20260507014126 20 280 8.0 17.7 0.00 0.00 0.00 61 1016.4
20260507013625 20 325 4.8 14.5 0.00 0.00 0.00 60 1016.4
20260507013147 20 252 6.4 17.7 0.00 0.00 0.00 60 1016.3
20260507012626 20 318 9.7 14.5 0.00 0.00 0.00 59 1016.3
20260507012125 20 283 6.4 16.1 0.00 0.00 0.00 59 1016.3
20260507011646 20 321 6.4 16.1 0.00 0.00 0.00 58 1016.3
20260507011126 20 346 8.0 16.1 0.00 0.00 0.00 58 1016.3
20260507010626 20 299 4.8 16.1 0.00 0.00 0.00 58 1016.2
20260507010147 20 307 4.8 14.5 0.00 0.00 0.00 59 1016.3
20260507005626 20 323 8.0 14.5 0.00 0.00 0.00 58 1016.2
20260507005124 20 302 6.4 19.3 0.00 0.00 0.00 58 1016.2
20260507004623 21 277 11.3 19.3 0.00 0.00 0.00 57 1016.2
20260507004123 21 256 6.4 19.3 0.00 0.00 0.00 59 1016.2
20260507003621 21 225 6.4 19.3 0.00 0.00 0.00 60 1016.1
20260507003121 21 291 11.3 16.1 0.00 0.00 0.00 59 1016.1
20260507002621 21 309 4.8 16.1 0.00 0.00 0.00 59 1016.1
20260507002122 21 271 8.0 16.1 0.00 0.00 0.00 58 1016.1
20260507001621 21 284 6.4 17.7 0.00 0.00 0.00 57 1016.1
20260507001119 21 315 9.7 20.9 0.00 0.00 0.00 58 1016.0
20260507000618 21 247 9.7 20.9 0.00 0.00 0.00 58 1015.9
20260507000118 21 213 8.0 17.7 0.00 0.00 0.00 58 1015.9
20260506235617 21 275 11.3 17.7 0.00 0.00 0.00 59 1015.9
20260506235118 21 260 6.4 17.7 0.00 0.00 0.00 60 1015.9
20260506234617 21 275 8.0 19.3 0.00 0.00 0.00 59 1015.9
20260506234116 21 276 11.3 20.9 0.00 0.00 0.00 60 1016.0
20260506233617 21 318 11.3 20.9 0.00 0.00 0.00 60 1015.9
20260506233137 21 248 11.3 19.3 0.00 0.00 0.00 59 1015.9
20260506232635 20 244 11.3 20.9 0.00 0.00 0.00 60 1015.9
20260506232115 21 265 8.0 20.9 0.00 0.00 0.00 59 1015.8
20260506231635 21 266 12.9 22.5 0.00 0.00 0.00 59 1015.9
20260506231134 21 345 11.3 22.5 0.00 0.00 0.00 59 1015.8
20260506230652 21 290 14.5 22.5 0.00 0.00 0.00 57 1015.9
20260506230129 21 242 11.3 25.7 0.00 0.00 0.00 59 1015.8
20260506225650 21 286 9.7 20.9 0.00 0.00 0.00 58 1015.9
20260506225128 21 300 14.5 20.9 0.00 0.00 0.00 58 1015.8
20260506224643 21 256 12.9 20.9 0.00 0.00 0.00 58 1015.9
20260506224121 21 308 9.7 19.3 0.00 0.00 0.00 57 1016.0
20260506223620 21 246 9.7 22.5 0.00 0.00 0.00 57 1016.1
20260506223119 21 258 14.5 22.5 0.00 0.00 0.00 56 1016.1
20260506222620 21 288 8.0 20.9 0.00 0.00 0.00 56 1016.1
20260506222139 21 290 9.7 22.5 0.00 0.00 0.00 56 1016.1
20260506221617 21 302 14.5 27.4 0.00 0.00 0.00 57 1016.2
20260506221114 21 250 9.7 27.4 0.00 0.00 0.00 58 1016.1
20260506220615 21 249 12.9 24.1 0.00 0.00 0.00 57 1016.4
20260506220133 21 250 11.3 25.7 0.00 0.00 0.00 57 1016.4
20260506215633 22 275 11.3 25.7 0.00 0.00 0.00 56 1016.4
20260506215132 22 295 6.4 19.3 0.00 0.00 0.00 56 1016.4
20260506214631 22 236 9.7 17.7 0.00 0.00 0.00 56 1016.4
20260506214128 22 250 6.4 30.6 0.00 0.00 0.00 58 1016.5
20260506213628 21 216 14.5 30.6 0.00 0.00 0.00 58 1016.5
20260506213126 21 246 11.3 24.1 0.00 0.00 0.00 58 1016.5
20260506212628 21 218 11.3 25.7 0.00 0.00 0.00 58 1016.5
20260506212148 21 239 11.3 27.4 0.00 0.00 0.00 58 1016.6
20260506211626 21 248 12.9 22.5 0.00 0.00 0.00 58 1016.5
20260506211124 21 257 11.3 22.5 0.00 0.00 0.00 58 1016.5
20260506210624 21 282 12.9 27.4 0.00 0.00 0.00 58 1016.6
20260506210143 21 283 12.9 27.4 0.00 0.00 0.00 59 1016.6
20260506205620 21 298 14.5 22.5 0.00 0.00 0.00 58 1016.5
20260506205120 21 238 11.3 25.7 0.00 0.00 0.00 59 1016.6
20260506204619 21 325 9.7 25.7 0.00 0.00 0.00 58 1016.8
20260506204119 21 288 12.9 22.5 0.00 0.00 0.00 58 1016.7
20260506203620 21 246 12.9 24.1 0.00 0.00 0.00 58 1016.6
20260506203120 22 223 11.3 24.1 0.00 0.00 0.00 57 1016.7
20260506202620 21 210 11.3 22.5 0.00 0.00 0.00 58 1016.7
20260506202120 22 273 11.3 24.1 0.00 0.00 0.00 57 1016.8
20260506201620 22 240 12.9 24.1 0.00 0.00 0.00 56 1016.9
20260506201119 22 300 9.7 17.7 0.00 0.00 0.00 55 1016.8
20260506200619 22 250 12.9 24.1 0.00 0.00 0.00 56 1016.9
20260506200118 22 249 11.3 24.1 0.00 0.00 0.00 56 1016.9
20260506195636 22 229 11.3 25.7 0.00 0.00 0.00 57 1017.0
20260506195114 21 255 11.3 20.9 0.00 0.00 0.00 56 1017.0
20260506194614 22 295 11.3 19.3 0.00 0.00 0.00 55 1017.1
20260506194115 22 298 6.4 19.3 0.00 0.00 0.00 55 1017.1
20260506193634 22 345 8.0 16.1 0.00 0.00 0.00 54 1017.1
20260506193135 22 250 4.8 16.1 0.00 0.00 0.00 54 1017.1
20260506192614 22 292 6.4 17.7 0.00 0.00 0.00 54 1017.1
20260506192114 22 296 6.4 17.7 0.00 0.00 0.00 54 1017.1
20260506191634 22 5 4.8 14.5 0.00 0.00 0.00 53 1017.2
20260506191128 22 343 9.7 14.5 0.00 0.00 0.00 53 1017.2
20260506190628 21 244 8.0 24.1 0.00 0.00 0.00 54 1017.2
20260506190129 21 237 8.0 24.1 0.00 0.00 0.00 53 1017.3
20260506185629 22 244 8.0 16.1 0.00 0.00 0.00 52 1017.3
20260506185114 21 290 8.0 12.9 0.00 0.00 0.00 52 1017.3
20260506184614 21 337 8.0 16.1 0.00 0.00 0.00 52 1017.3
20260506184130 21 316 8.0 16.1 0.00 0.00 0.00 51 1017.4
20260506183630 21 281 8.0 16.1 0.00 0.00 0.00 52 1017.4
20260506183130 21 313 6.4 12.9 0.00 0.00 0.00 51 1017.6
20260506182628 21 329 4.8 14.5 0.00 0.00 0.00 53 1017.5
20260506182126 20 309 8.0 17.7 0.00 0.00 0.00 54 1017.7
20260506181626 20 286 3.2 17.7 0.00 0.00 0.00 54 1017.7
20260506181124 20 286 4.8 14.5 0.00 0.00 0.00 54 1017.8
20260506180624 20 248 9.7 16.1 0.00 0.00 0.00 55 1017.9
20260506180143 20 252 8.0 17.7 0.00 0.00 0.00 55 1018.0
20260506175640 20 295 4.8 17.7 0.00 0.00 0.00 56 1018.0
20260506175119 20 252 8.0 14.5 0.00 0.00 0.00 56 1018.1
20260506174618 19 309 4.8 16.1 0.00 0.00 0.00 56 1018.1
20260506174118 19 296 8.0 24.1 0.00 0.00 0.00 58 1018.2
20260506173637 19 271 11.3 24.1 0.00 0.00 0.00 58 1018.1
20260506173115 18 246 6.4 17.7 0.00 0.00 0.00 59 1018.1
20260506172636 18 245 6.4 17.7 0.00 0.00 0.00 59 1018.2
20260506172114 18 316 6.4 17.7 0.00 0.00 0.00 59 1018.4
20260506171635 18 334 4.8 16.1 0.00 0.00 0.00 61 1018.3
20260506171153 18 303 4.8 11.3 0.00 0.00 0.00 62 1018.4
20260506170631 17 151 3.2 11.3 0.00 0.00 0.00 64 1018.3
20260506170129 17 310 4.8 14.5 0.00 0.00 0.00 65 1018.3
20260506165629 17 292 8.0 14.5 0.00 0.00 0.00 65 1018.3
20260506165149 17 265 4.8 12.9 0.00 0.00 0.00 64 1018.3
20260506164626 17 309 4.8 12.9 0.00 0.00 0.00 65 1018.2
20260506164125 17 298 6.4 14.5 0.00 0.00 0.00 65 1018.2
20260506163646 17 313 6.4 14.5 0.00 0.00 0.00 65 1018.3
20260506163126 17 28 6.4 12.9 0.00 0.00 0.00 65 1018.3
20260506162625 17 313 4.8 9.7 0.00 0.00 0.00 65 1018.3
20260506162124 17 327 4.8 11.3 0.00 0.00 0.00 65 1018.3
20260506161622 17 347 4.8 11.3 0.00 0.00 0.00 66 1018.3
20260506161140 17 60 4.8 8.0 0.00 0.00 0.00 66 1018.3
20260506160620 17 349 3.2 8.0 0.00 0.00 0.00 66 1018.4
20260506160115 16 38 3.2 6.4 0.00 0.00 0.00 67 1018.3
20260506155632 16 355 3.2 8.0 0.00 0.00 0.00 67 1018.3
20260506155132 16 355 4.8 8.0 0.00 0.00 0.00 67 1018.3
20260506154651 16 68 3.2 9.7 0.00 0.00 0.00 67 1018.3
20260506154128 16 59 6.4 9.7 0.00 0.00 0.00 67 1018.4
20260506153627 16 55 6.4 9.7 0.00 0.00 0.00 68 1018.3
20260506153124 16 63 4.8 8.0 0.00 0.00 0.00 68 1018.3
20260506152624 16 51 4.8 9.7 0.00 0.00 0.00 68 1018.3
20260506152123 15 53 6.4 9.7 0.00 0.00 0.00 69 1018.4
20260506151621 15 29 6.4 9.7 0.00 0.00 0.00 69 1018.4
20260506151139 15 33 4.8 9.7 0.00 0.00 0.00 70 1018.4
20260506150616 15 50 6.4 9.7 0.00 0.00 0.00 70 1018.4
20260506150116 15 32 3.2 6.4 0.00 0.13 0.00 72 1018.4
20260506145614 14 5 4.8 9.7 0.00 0.13 0.00 73 1018.4
20260506145132 14 41 4.8 9.7 0.00 0.13 0.00 73 1018.4
20260506144630 13 52 4.8 6.4 0.00 0.13 0.00 74 1018.3
20260506144129 13 45 3.2 6.4 0.00 0.13 0.00 75 1018.4
20260506143646 13 47 3.2 6.4 0.00 0.13 0.00 76 1018.4
20260506143144 13 46 4.8 8.0 0.00 0.13 0.00 76 1018.3
20260506142623 13 52 6.4 8.0 0.00 0.13 0.00 76 1018.3
20260506142123 12 51 6.4 9.7 0.00 0.13 0.00 77 1018.3
20260506141624 12 37 6.4 9.7 0.00 0.13 0.00 78 1018.3
20260506141122 12 44 4.8 6.4 0.00 0.13 0.00 79 1018.3
20260506140620 12 45 3.2 4.8 0.00 0.13 0.00 79 1018.3
20260506140141 12 46 3.2 4.8 0.00 0.13 0.00 79 1018.4
20260506135640 12 69 3.2 6.4 0.00 0.13 0.00 79 1018.3
20260506135135 12 38 4.8 6.4 0.00 0.13 0.00 79 1018.3
20260506134654 12 36 4.8 6.4 0.00 0.13 0.00 79 1018.2
20260506134132 11 45 4.8 6.4 0.00 0.13 0.00 80 1018.1
20260506133630 11 61 4.8 6.4 0.00 0.13 0.00 80 1018.1
20260506133130 11 46 1.6 4.8 0.00 0.13 0.00 80 1018.0
20260506132628 11 45 3.2 6.4 0.00 0.13 0.00 80 1017.9
20260506132129 11 45 3.2 6.4 0.00 0.13 0.00 79 1018.0
20260506131629 11 48 3.2 6.4 0.00 0.13 0.00 79 1017.9
20260506131130 11 49 4.8 6.4 0.00 0.13 0.00 79 1017.8
20260506130631 11 57 3.2 6.4 0.00 0.13 0.00 79 1017.8
20260506130131 11 56 3.2 6.4 0.00 0.13 0.00 79 1017.7
20260506125631 11 57 3.2 6.4 0.00 0.13 0.00 79 1017.6
20260506125129 11 44 4.8 6.4 0.00 0.13 0.00 79 1017.6
20260506124648 11 40 3.2 6.4 0.00 0.13 0.00 79 1017.6
20260506124127 11 41 3.2 8.0 0.00 0.13 0.00 79 1017.6
20260506123647 11 46 4.8 8.0 0.00 0.13 0.00 80 1017.4
20260506123125 11 44 1.6 8.0 0.00 0.13 0.00 79 1017.6
20260506122625 11 44 3.2 8.0 0.00 0.13 0.00 80 1017.4
20260506122124 11 51 4.8 6.4 0.00 0.13 0.00 80 1017.4
20260506121643 11 48 4.8 8.0 0.00 0.13 0.00 80 1017.4
20260506121122 11 52 3.2 8.0 0.00 0.13 0.00 80 1017.2
20260506120641 11 32 0.0 0.0 0.00 0.13 0.00 80 1017.2
20260506120119 12 32 0.0 0.0 0.00 0.15 0.00 80 1017.3
20260506115619 12 31 0.0 0.0 0.00 0.15 0.00 79 1017.3
20260506115119 12 30 0.0 0.0 0.00 0.15 0.00 80 1017.2
20260506114619 12 30 0.0 0.0 0.00 0.15 0.00 79 1017.3
20260506114118 12 32 0.0 0.0 0.00 0.15 0.00 79 1017.3
20260506113639 12 32 0.0 0.0 0.00 0.15 0.00 79 1017.3
20260506113117 12 32 0.0 0.0 0.00 0.15 0.00 79 1017.3
20260506112617 12 32 0.0 0.0 0.00 0.15 0.00 80 1017.4
20260506112116 12 31 0.0 0.0 0.00 0.15 0.00 79 1017.3
20260506111634 12 31 0.0 0.0 0.00 0.15 0.00 80 1017.4
20260506111128 12 30 0.0 0.0 0.00 0.15 0.00 80 1017.3
20260506110627 12 31 0.0 0.0 0.00 0.15 0.00 80 1017.3
20260506110128 12 31 0.0 0.0 0.00 0.15 0.00 80 1017.4